Athens, OH

4:17 AM EDT on May 27, 2017 (GMT -0400)
Ohio University

Weather History for KUNI - January, 2013

Change the Weather History Date:

Thursday, January 3, 2013

  Actual Average (KPKB) Record (KPKB)
Temperature  
Mean Temperature 25 °F -  
Max Temperature 36 °F 40 °F 71 °F (1907)
Min Temperature 14 °F 25 °F -1 °F (1918)
Degree Days  
Heating Degree Days 40    
Moisture  
Dew Point 18 °F    
Average Humidity 73    
Maximum Humidity 93    
Minimum Humidity 49    
Precipitation  
Precipitation 0.00 in - - ()
Sea Level Pressure  
Sea Level Pressure 30.23 in    
Wind  
Wind Speed 3 mph (West)    
Max Wind Speed 13 mph    
Max Gust Speed 22 mph    
Visibility 10 miles    
Events      
Averages and records for this station are not official NWS values.
T = Trace of Precipitation, MM = Missing Value Source: NWS Daily Summary

Daily Weather History Graph

Daily Weather History Graph

Search for Another Location

Airport or City:

Trip Planner

Search our weather history database for the weather conditions in past years. The results will help you decide how hot, cold, wet, or windy it might be!

Date:

Astronomy

Jan. 03, 2013 Rise Set
Actual Time 7:48 AM EST 5:18 PM EST
Civil Twilight 7:18 AM EST 5:48 PM EST
Nautical Twilight 6:45 AM EST 6:22 PM EST
Astronomical Twilight 6:12 AM EST 6:54 PM EST
Moon 11:49 PM EST (1/3) 11:02 AM EST (1/3)
Length of Visible Light 10h 29m
Length of Day
9h 30m
Waning Gibbous, 65% of the Moon is Illuminated
Jan 3
Waning Gibbous
Jan 4
Last Quarter
Jan 11
New
Jan 18
First Quarter
Jan 26
Full

Hourly Weather History & Observations

Time (EST) Temp. Windchill Dew Point Humidity Pressure Visibility Wind Dir Wind Speed Gust Speed Precip Events Conditions
12:15 AM 21.9 °F - 18.3 °F 86% 30.21 in 10.0 mi Calm Calm - N/A   Clear
12:35 AM 21.2 °F - 18.5 °F 89% 30.20 in 10.0 mi Calm Calm - N/A   Clear
12:55 AM 21.0 °F - 18.5 °F 90% 30.21 in 10.0 mi Calm Calm - N/A   Clear
1:15 AM 21.2 °F - 18.3 °F 89% 30.20 in 10.0 mi Calm Calm - N/A   Clear
1:35 AM 20.5 °F - 18.0 °F 90% 30.20 in 10.0 mi Calm Calm - N/A   Clear
1:55 AM 19.8 °F - 17.6 °F 91% 30.20 in 10.0 mi Calm Calm - N/A   Clear
2:15 AM 19.2 °F - 17.1 °F 91% 30.20 in 10.0 mi Calm Calm - N/A   Clear
2:55 AM 17.8 °F - 15.6 °F 91% 30.21 in 10.0 mi Calm Calm - N/A   Clear
3:15 AM 18.0 °F - 15.8 °F 91% 30.21 in 10.0 mi Calm Calm - N/A   Clear
3:35 AM 17.2 °F - 15.1 °F 91% 30.22 in 10.0 mi Calm Calm - N/A   Clear
3:55 AM 17.1 °F - 15.3 °F 93% 30.21 in 7.0 mi Calm Calm - N/A   Clear
4:15 AM 16.7 °F - 14.9 °F 93% 30.20 in 7.0 mi Calm Calm - N/A   Clear
4:35 AM 16.5 °F - 14.7 °F 93% 30.21 in 7.0 mi Calm Calm - N/A   Clear
4:55 AM 15.6 °F - 13.8 °F 93% 30.20 in 10.0 mi Calm Calm - N/A   Clear
5:15 AM 16.3 °F - 14.4 °F 92% 30.20 in 10.0 mi Calm Calm - N/A   Clear
5:55 AM 15.3 °F - 13.5 °F 93% 30.20 in 10.0 mi Calm Calm - N/A   Clear
6:15 AM 14.4 °F - 12.2 °F 91% 30.21 in 10.0 mi Calm Calm - N/A   Clear
6:35 AM 14.9 °F - 13.1 °F 93% 30.21 in 10.0 mi Calm Calm - N/A   Clear
7:15 AM 14.7 °F - 12.7 °F 92% 30.22 in 10.0 mi Calm Calm - N/A   Clear
7:35 AM 14.9 °F - 12.7 °F 91% 30.22 in 10.0 mi Calm Calm - N/A   Clear
7:55 AM 14.5 °F - 12.4 °F 91% 30.22 in 10.0 mi Calm Calm - N/A   Clear
8:15 AM 14.0 °F - 11.8 °F 91% 30.23 in 10.0 mi Calm Calm - N/A   Clear
8:35 AM 14.0 °F - 12.0 °F 92% 30.24 in 10.0 mi North - - N/A   Clear
8:55 AM 14.0 °F - 12.0 °F 92% 30.25 in 10.0 mi Calm Calm - N/A   Clear
9:15 AM 14.4 °F - 12.2 °F 91% 30.25 in 10.0 mi Calm Calm - N/A   Clear
9:35 AM 15.8 °F - 13.6 °F 91% 30.25 in 10.0 mi Calm Calm - N/A   Clear
9:55 AM 17.4 °F - 14.9 °F 90% 30.25 in 10.0 mi Calm Calm - N/A   Clear
10:15 AM 21.2 °F - 18.5 °F 89% 30.25 in 10.0 mi Calm Calm - N/A   Clear
10:35 AM 24.4 °F 20.1 °F 20.1 °F 84% 30.24 in 10.0 mi WSW 3.5 mph - N/A   Clear
10:55 AM 27.5 °F 21.1 °F 19.9 °F 73% 30.24 in 10.0 mi WSW 5.8 mph - N/A   Clear
11:15 AM 29.1 °F 22.1 °F 18.5 °F 65% 30.24 in 10.0 mi WSW 6.9 mph - N/A   Clear
11:35 AM 30.4 °F 25.6 °F 16.7 °F 57% 30.22 in 10.0 mi WSW 4.6 mph - N/A   Clear
11:55 AM 32.0 °F 25.6 °F 17.2 °F 55% 30.21 in 10.0 mi SW 6.9 mph - N/A   Clear
12:15 PM 32.0 °F 26.4 °F 18.0 °F 56% 30.21 in 10.0 mi WSW 5.8 mph - N/A   Clear
12:35 PM 32.9 °F 25.3 °F 19.9 °F 59% 30.21 in 10.0 mi WSW 9.2 mph - N/A   Clear
12:55 PM 33.8 °F 28.6 °F 21.2 °F 60% 30.20 in 10.0 mi SW 5.8 mph - N/A   Clear
1:15 PM 34.2 °F 26.8 °F 21.0 °F 59% 30.19 in 10.0 mi WSW 9.2 mph - N/A   Clear
1:35 PM 34.7 °F 27.5 °F 20.7 °F 57% 30.19 in 10.0 mi West 9.2 mph - N/A   Clear
1:55 PM 35.1 °F 28.6 °F 21.0 °F 57% 30.19 in 10.0 mi West 8.1 mph - N/A   Clear
2:15 PM 35.8 °F 27.8 °F 20.1 °F 53% 30.18 in 10.0 mi WSW 11.5 mph - N/A   Clear
2:35 PM 36.1 °F 29.3 °F 20.8 °F 54% 30.18 in 10.0 mi SW 9.2 mph - N/A   Clear
3:15 PM 36.5 °F 31.0 °F 20.8 °F 53% 30.18 in 10.0 mi SW 6.9 mph - N/A   Clear
3:35 PM 36.5 °F 29.2 °F 21.4 °F 54% 30.19 in 10.0 mi WSW 10.4 mph - N/A   Clear
3:55 PM 36.7 °F 29.4 °F 21.6 °F 54% 30.19 in 10.0 mi WSW 10.4 mph - N/A   Clear
4:15 PM 36.7 °F 30.5 °F 21.2 °F 54% 30.20 in 10.0 mi WSW 8.1 mph - N/A   Clear
4:35 PM 36.5 °F 28.7 °F 19.0 °F 49% 30.21 in 10.0 mi West 11.5 mph 21.9 mph N/A   Clear
4:55 PM 36.0 °F 27.5 °F 18.5 °F 49% 30.21 in 10.0 mi West 12.7 mph - N/A   Clear
5:15 PM 35.1 °F 27.9 °F 19.0 °F 52% 30.22 in 10.0 mi West 9.2 mph - N/A   Clear
5:35 PM 33.8 °F 28.6 °F 19.2 °F 55% 30.22 in 10.0 mi West 5.8 mph - N/A   Clear
5:55 PM 33.3 °F 27.9 °F 19.2 °F 56% 30.23 in 10.0 mi West 5.8 mph - N/A   Mostly Cloudy
6:15 PM 32.0 °F 27.5 °F 20.5 °F 63% 30.24 in 10.0 mi West 4.6 mph - N/A   Overcast
6:35 PM 33.3 °F 27.9 °F 19.2 °F 56% 30.24 in 10.0 mi West 5.8 mph - N/A   Overcast
6:55 PM 32.7 °F 29.6 °F 20.5 °F 61% 30.24 in 10.0 mi WNW 3.5 mph - N/A   Overcast
7:15 PM 32.2 °F 26.7 °F 19.9 °F 61% 30.25 in 10.0 mi West 5.8 mph - N/A   Overcast
7:35 PM 32.2 °F 25.0 °F 19.9 °F 61% 30.26 in 10.0 mi West 8.1 mph - N/A   Overcast
7:55 PM 32.4 °F 24.0 °F 20.3 °F 61% 30.26 in 10.0 mi West 10.4 mph - N/A   Overcast
8:15 PM 32.0 °F 25.6 °F 20.7 °F 63% 30.27 in 10.0 mi West 6.9 mph - N/A   Overcast
8:35 PM 32.0 °F 25.6 °F 20.1 °F 62% 30.27 in 10.0 mi West 6.9 mph - N/A   Overcast
8:55 PM 31.6 °F 24.4 °F 19.8 °F 62% 30.27 in 10.0 mi West 8.1 mph - N/A   Mostly Cloudy
9:15 PM 31.8 °F 23.9 °F 19.9 °F 62% 30.27 in 10.0 mi West 9.2 mph - N/A   Overcast
9:35 PM 32.0 °F 24.8 °F 20.3 °F 62% 30.27 in 10.0 mi West 8.1 mph 18.4 mph N/A   Overcast
10:15 PM 31.8 °F 24.6 °F 20.3 °F 62% 30.29 in 10.0 mi West 8.1 mph 17.3 mph N/A   Overcast
10:35 PM 31.8 °F 25.4 °F 20.1 °F 62% 30.29 in 10.0 mi West 6.9 mph - N/A   Overcast
10:55 PM 32.0 °F 23.6 °F 19.8 °F 61% 30.29 in 10.0 mi West 10.4 mph - N/A   Overcast
11:15 PM 32.0 °F 23.6 °F 19.8 °F 61% 30.29 in 10.0 mi West 10.4 mph - N/A   Overcast
11:35 PM 32.0 °F 25.6 °F 19.9 °F 61% 30.29 in 10.0 mi WNW 6.9 mph - N/A   Overcast